Weather reports worldwide

Advertisment
Wakefield, va, United States of America (2074226): temperature & dewpoint: 17.07.2019 19:00:00 - 23.07.2019 19:00:00 (EDT)Wakefield, va, United States of America (2074226): wind speed: 17.07.2019 19:00:00 - 23.07.2019 19:00:00 (EDT)Wakefield, va, United States of America (2074226): wind direction: 17.07.2019 19:00:00 - 23.07.2019 19:00:00 (EDT)Wakefield, va, United States of America (2074226): reduced air pressure: 17.07.2019 19:00:00 - 23.07.2019 19:00:00 (EDT)Wakefield, va, United States of America (2074226): visibility: 17.07.2019 19:00:00 - 23.07.2019 19:00:00 (EDT)Wakefield, va, United States of America (2074226): precipitation: 17.07.2019 19:00:00 - 23.07.2019 19:00:00 (EDT)
Date & Time tt [°C] td [°C] ff [km/h] ff [kn] dd ppp [hPa] vv [km] rr [mm]
23.07.2019 19:00:00 18,9 17,8 5 3 - 1011,2 8 3,3
23.07.2019 18:00:00 19,4 17,8 9 5 - 1011,4 4,8 0,8
23.07.2019 17:00:00 20,0 18,3 0 0 N 1011,3 8 0,3
23.07.2019 16:00:00 19,4 18,3 9 5 - 1011,4 6 1,0
23.07.2019 15:00:00 19,4 18,3 5 3 - 1011,8 1,2 5,1
23.07.2019 14:00:00 21,7 17,8 8 4 - 1011,4 2,8 0,5
23.07.2019 13:00:00 23,3 17,8 9 5 - 1011,6 16 0,3
23.07.2019 12:00:00 22,2 17,2 11 6 N 1012,6 16 -
23.07.2019 11:00:00 22,2 18,9 8 4 NNE 1012,7 16 -
23.07.2019 10:00:00 21,7 18,9 5 3 - 1012,7 16 0,0
23.07.2019 09:00:00 22,2 20,0 8 4 - 1012,5 16 0,0
23.07.2019 08:00:00 23,3 21,7 8 4 SW 1012,1 16 0,0
23.07.2019 07:00:00 22,8 21,7 8 4 - 1012,0 15 0,0
23.07.2019 06:00:00 22,8 21,7 9 5 SSW 1011,7 13 1,0
23.07.2019 05:00:00 23,3 21,7 13 7 SW 1011,3 10 3,6
23.07.2019 04:00:00 22,8 21,7 13 7 SW 1011,4 8 2,0
23.07.2019 03:00:00 23,3 21,7 8 4 WSW 1010,9 11 0,3
23.07.2019 02:00:00 23,9 21,1 8 4 SSW 1010,4 16 -
23.07.2019 01:00:00 23,3 21,1 8 4 SSW 1011,3 16 0,0
23.07.2019 00:00:00 23,3 21,1 9 5 SSW 1011,6 16 2,0
22.07.2019 23:00:00 23,9 22,2 9 5 SW 1011,5 15 1,8
22.07.2019 22:00:00 25,6 21,7 8 4 - 1010,7 15 0,0
22.07.2019 21:00:00 30,6 21,1 0 0 N 1010,3 16 -
22.07.2019 20:00:00 32,2 20,6 11 6 SW 1009,9 16 -
22.07.2019 19:00:00 33,9 21,7 15 8 SW 1009,7 16 -
22.07.2019 18:00:00 34,4 21,1 11 6 - 1009,5 16 -
22.07.2019 17:00:00 34,4 20,0 13 7 SW 1009,4 16 -
22.07.2019 16:00:00 36,7 20,6 15 8 SW 1009,7 16 -
22.07.2019 15:00:00 36,1 20,0 22 12 WSW 1010,5 16 -
22.07.2019 14:00:00 35,0 21,7 15 8 SSW 1011,3 16 -
22.07.2019 13:00:00 33,9 22,2 26 14 SW 1011,8 16 -
22.07.2019 12:00:00 33,3 21,7 21 11 SSW 1012,2 16 -
22.07.2019 11:00:00 32,2 22,2 21 11 SW 1012,7 16 -
22.07.2019 10:00:00 31,1 22,2 16 9 SW 1012,5 16 -
22.07.2019 09:00:00 28,9 22,2 11 6 SW 1012,8 16 -
22.07.2019 08:00:00 27,2 21,7 11 6 - 1013,0 16 -
22.07.2019 07:00:00 25,6 21,7 9 5 SW 1012,9 16 -
22.07.2019 06:00:00 25,6 21,1 8 4 SSW 1012,6 16 -
22.07.2019 05:00:00 25,0 21,7 8 4 SSW 1012,6 16 -
22.07.2019 04:00:00 24,4 22,2 0 0 N 1012,9 16 -
22.07.2019 03:00:00 23,9 21,7 0 0 N 1013,0 16 -
22.07.2019 02:00:00 23,3 21,7 0 0 N 1012,8 16 -
22.07.2019 01:00:00 23,9 21,7 0 0 N 1013,0 16 -
22.07.2019 00:00:00 25,0 21,7 0 0 N 1013,1 16 -
21.07.2019 23:00:00 26,7 21,1 0 0 N 1013,2 16 -
21.07.2019 22:00:00 26,7 22,8 5 3 NW 1012,9 16 -
21.07.2019 21:00:00 28,3 22,2 0 0 N 1012,3 16 -
21.07.2019 20:00:00 29,4 22,2 5 3 SW 1012,0 16 -
21.07.2019 19:00:00 32,8 22,2 8 4 WSW 1011,7 16 -
21.07.2019 18:00:00 34,4 25,0 5 3 WSW 1011,8 16 -
21.07.2019 17:00:00 33,9 22,8 8 4 W 1011,9 16 -
21.07.2019 16:00:00 35,0 24,4 8 4 W 1012,2 16 -
21.07.2019 15:00:00 35,0 24,4 11 6 WSW 1012,2 16 -
21.07.2019 14:00:00 35,6 24,4 13 7 SW 1012,8 16 -
21.07.2019 13:00:00 35,0 25,0 9 5 - 1013,3 16 -
21.07.2019 12:00:00 33,9 25,0 11 6 - 1013,4 16 -
21.07.2019 11:00:00 32,2 24,4 13 7 SW 1013,4 16 -
21.07.2019 10:00:00 30,6 23,3 9 5 WSW 1013,4 16 -
21.07.2019 09:00:00 28,9 23,3 9 5 WSW 1013,4 16 -
21.07.2019 08:00:00 27,2 22,8 9 5 SW 1013,3 16 -
21.07.2019 07:00:00 25,0 22,2 8 4 SW 1012,9 16 -
21.07.2019 06:00:00 25,0 22,2 9 5 S 1012,4 16 -
21.07.2019 05:00:00 25,0 22,2 8 4 SW 1012,9 16 -
21.07.2019 04:00:00 25,6 22,2 9 5 SW 1012,6 16 -
21.07.2019 03:00:00 26,1 22,2 8 4 SW 1012,9 16 -
21.07.2019 02:00:00 26,7 22,8 5 3 SSW 1013,0 16 -
21.07.2019 01:00:00 27,2 22,8 8 4 SW 1013,0 16 -
21.07.2019 00:00:00 27,8 22,8 9 5 SW 1012,9 16 -
20.07.2019 23:00:00 28,3 22,8 8 4 SSW 1013,1 16 -
20.07.2019 22:00:00 29,4 23,3 9 5 SW 1012,9 16 -
20.07.2019 21:00:00 30,6 23,9 8 4 SW 1012,3 16 -
20.07.2019 20:00:00 32,8 25,6 8 4 SW 1011,9 16 -
20.07.2019 19:00:00 34,4 25,0 8 4 SW 1011,7 16 -
20.07.2019 18:00:00 35,6 25,0 13 7 SW 1011,5 16 -
20.07.2019 17:00:00 35,6 24,4 13 7 SSW 1011,8 16 -
20.07.2019 16:00:00 35,6 24,4 11 6 S 1011,4 16 -
20.07.2019 15:00:00 35,6 24,4 5 3 WSW 1012,5 16 -
20.07.2019 14:00:00 35,6 25,0 8 4 - 1013,3 16 -
20.07.2019 13:00:00 34,4 25,0 0 0 N 1014,1 16 -
20.07.2019 12:00:00 33,9 25,6 0 0 N 1014,5 16 -
20.07.2019 11:00:00 32,2 25,0 0 0 N 1014,6 16 -
20.07.2019 10:00:00 31,7 24,4 8 4 WNW 1014,5 16 -
20.07.2019 09:00:00 29,4 23,9 8 4 WSW 1014,6 16 -
20.07.2019 08:00:00 28,3 23,9 8 4 W 1014,4 16 -
20.07.2019 07:00:00 25,6 23,3 0 0 N 1014,3 16 -
20.07.2019 06:00:00 25,6 22,8 0 0 N 1014,1 16 -
20.07.2019 05:00:00 25,6 23,3 0 0 N 1013,6 16 -
20.07.2019 04:00:00 26,1 23,3 5 3 SSW 1013,4 16 -
20.07.2019 03:00:00 26,7 23,3 5 3 SW 1013,6 16 -
20.07.2019 02:00:00 27,2 23,3 5 3 SSW 1013,8 16 -
20.07.2019 01:00:00 27,8 23,3 5 3 SSW 1014,0 16 -
20.07.2019 00:00:00 27,8 23,9 0 0 N 1014,3 16 -
19.07.2019 23:00:00 27,8 24,4 0 0 N 1014,4 16 -
19.07.2019 22:00:00 27,8 25,0 0 0 N 1014,2 16 -
19.07.2019 21:00:00 29,4 25,0 0 0 N 1013,5 16 -
19.07.2019 20:00:00 32,2 25,0 8 4 WSW 1013,3 16 -
19.07.2019 19:00:00 33,9 24,4 9 5 SSW 1012,9 16 -
19.07.2019 18:00:00 34,4 23,9 5 3 - 1012,8 16 -
19.07.2019 17:00:00 35,6 23,3 8 4 - 1013,3 16 -
19.07.2019 16:00:00 35,0 22,2 0 0 N 1014,0 16 -
19.07.2019 15:00:00 34,4 22,8 9 5 SSE 1014,3 16 -
19.07.2019 14:00:00 34,4 23,9 5 3 WSW 1014,8 16 -
19.07.2019 13:00:00 32,8 23,9 5 3 - 1015,2 16 -
19.07.2019 12:00:00 31,7 24,4 0 0 N 1015,4 16 -
19.07.2019 11:00:00 29,4 23,9 0 0 N 1015,3 16 -
19.07.2019 10:00:00 27,2 22,8 8 4 SSW 1015,4 16 -
19.07.2019 09:00:00 27,2 22,8 9 5 WSW 1014,9 16 -
19.07.2019 08:00:00 25,0 22,2 5 3 SSW 1014,5 16 -
19.07.2019 07:00:00 24,4 22,2 0 0 N 1013,7 16 -
19.07.2019 06:00:00 23,9 22,2 8 4 S 1013,4 16 -
19.07.2019 05:00:00 24,4 22,2 5 3 SSW 1013,4 16 -
19.07.2019 04:00:00 25,0 22,2 0 0 N 1013,3 16 -
19.07.2019 03:00:00 25,6 21,7 13 7 SW 1013,2 16 -
19.07.2019 02:00:00 25,6 22,2 9 5 SW 1013,4 16 -
19.07.2019 01:00:00 26,1 22,2 8 4 - 1013,1 16 -
19.07.2019 00:00:00 26,7 22,2 9 5 SSW 1013,5 16 -
18.07.2019 23:00:00 26,7 22,2 5 3 S 1013,9 16 -
18.07.2019 22:00:00 27,2 22,2 5 3 SSW 1013,6 16 -
18.07.2019 21:00:00 28,9 22,8 11 6 SSW 1011,9 16 -
18.07.2019 20:00:00 31,1 24,4 5 3 S 1011,6 16 -
18.07.2019 19:00:00 33,9 22,8 8 4 - 1011,2 16 -
18.07.2019 18:00:00 34,4 22,8 11 6 S 1010,9 16 -
18.07.2019 17:00:00 34,4 22,8 13 7 WSW 1011,2 16 -
18.07.2019 16:00:00 33,9 23,3 9 5 S 1011,9 16 -
18.07.2019 15:00:00 33,3 23,9 13 7 SW 1012,2 16 -
18.07.2019 14:00:00 32,8 23,9 11 6 SW 1012,5 16 -
18.07.2019 13:00:00 32,8 23,9 11 6 - 1012,8 16 -
18.07.2019 12:00:00 31,7 23,9 9 5 SSW 1013,1 16 -
18.07.2019 11:00:00 30,6 23,3 11 6 SW 1013,6 16 -
18.07.2019 10:00:00 30,0 23,3 11 6 - 1013,8 16 -
18.07.2019 09:00:00 27,2 23,3 9 5 SSW 1013,9 16 -
18.07.2019 08:00:00 26,7 22,8 11 6 SW 1013,9 16 -
18.07.2019 07:00:00 25,6 22,8 8 4 SSW 1013,4 16 -
18.07.2019 06:00:00 25,6 22,8 8 4 SSW 1013,1 16 -
18.07.2019 05:00:00 26,1 22,2 9 5 - 1012,8 16 -
18.07.2019 04:00:00 26,1 22,8 8 4 - 1013,0 16 0,0
18.07.2019 03:00:00 26,7 23,3 8 4 - 1013,7 16 -
18.07.2019 02:00:00 27,2 23,9 8 4 S 1014,3 16 -
18.07.2019 01:00:00 25,6 24,4 0 0 N 1014,3 8 0,3
18.07.2019 00:00:00 25,6 23,9 0 0 N 1014,2 10 0,0
17.07.2019 23:00:00 25,6 23,9 0 0 N 1014,1 11 -
17.07.2019 22:00:00 24,4 22,8 0 0 N 1013,3 16 -
17.07.2019 21:00:00 24,4 22,2 0 0 N 1012,8 16 1,8
17.07.2019 20:00:00 26,7 21,7 9 5 - 1013,7 4,8 0,8
17.07.2019 19:00:00 33,9 23,3 8 4 S 1013,2 16 -

tt = temperature
td = dewpoint
ff = wind speed
dd = wind direction
ppp = reduced air pressure
vv = visibility
rr = precipitation

Next stations